"Pseudo-MPEC" for CEJGYL2

Created 2026 Apr 16 23:35:08 UT using Find_Orb

Click here for an explanation of pseudo-MPECs

 
 Astrometry: 
     CEJGYL2*1C2026 04 16.30898513 34 04.760+07 54 55.04   ~4G85       VNEOCPG96
     CEJGYL2 1C2026 04 16.31413213 34 04.426+07 54 41.04   ~4G85 21.69GVNEOCPG96
     CEJGYL2 1C2026 04 16.31929213 34 04.076+07 54 26.86   ~4G85 21.56GVNEOCPG96
     CEJGYL2 1C2026 04 16.32443913 34 03.756+07 54 13.00   ~4G85 22.08GVNEOCPG96
     CEJGYL2  C2026 04 16.35441113 33 59.697+07 52 25.98   ~4G9K 20.9 GWNEOCPH01
     CEJGYL2  C2026 04 16.35727013 33 59.566+07 52 17.50   ~4G9K 20.9 GWNEOCPH01
     CEJGYL2  C2026 04 16.36962213 33 59.072+07 51 39.82   ~4G9K 21.0 GWNEOCPH01
     CEJGYL2  C2026 04 16.37495313 33 58.893+07 51 23.43   ~4G9K 21.1 GWNEOCPH01

Station data:
(G96) Mt. Lemmon Survey  (N32.442729 W110.788720)  US/Arizona.  Observer E.
   J. Christensen. Measurers T. Beuden, V. F. Carvajal, D. Fay, J. B.
   Fazekas, D. C. Fuls, A. R. Gibbs, A. D. Grauer, H. Gröller, J. K. Hogan,
   R. A. Kowalski, S. M. Larson, G. J. Leonard, D. Rankin, R. L. Seaman, F.
   C. Shelly, K. W. Wierzchoś. 1.5-m reflector + 10K CCD.
(H01) Magdalena Ridge Observatory, Socorro  (N33.984833 W107.189333)  US/New
   Mexico.  Observers W. H. Ryan, E. V. Ryan. Measurer W. H. Ryan. 2.4-m
   f/8.9 reflector + CCD.

Orbital elements:  CEJGYL2
   Perihelion 2026 Jun 10.402055 +/- 2.59 TT =  9:38:57.5 (JD 2461201.902055)
Epoch 2026 Apr 16.0 TT = JDT 2461146.5   Earth MOID: 0.0002   Ma: 0.0605
M 319.220930839 +/- 7               (J2000 ecliptic)             AutoNEOCP
n   0.736056977 +/- 0.103           Peri.  244.544880 +/- 3.7
a   1.214866136 +/- 0.113           Node    28.391879 +/- 0.8
e   0.27446818 +/- 0.11             Incl.    4.388303 +/- 1.5
P   1.339/489.083d         H 30.30  G  0.15   U 11.2
q 0.881424026 +/- 0.052    Q 1.548308245 +/- 0.278
From 8 observations 2026 Apr. 16 (95.0 min); mean residual 0".15
Residuals in arcseconds: 
260416 G96  .11+  .12-    260416 G96  .07-  .42+    260416 H01  .03-  .02-    
260416 G96  .07+  .09-    260416 H01  .11+  .20-    260416 H01  .05-  .13+    
260416 G96  .20-  .05-    260416 H01  .05+  .07-    

Ephemerides (geocentric):
Date (UTC) HH   RA             Dec           delta  r     elong  mag " sig PA
---- --------  ------------   ------------  ------ ------ -----  --- --------
2026 04 17 00  13 37 15.477   +07 19 03.19  .00868 1.0120 162.4 20.9  568 124
2026 04 17 01  13 37 31.469   +07 15 34.42  .00849 1.0118 162.5 20.9  680 124
2026 04 17 02  13 37 48.199   +07 11 55.79  .00830 1.0116 162.5 20.8  811 125
2026 04 17 03  13 38 05.720   +07 08 06.61  .00811 1.0115 162.5 20.8  963 126
2026 04 17 04  13 38 24.088   +07 04 06.10  .00791 1.0113 162.6 20.7 1139 126
2026 04 17 05  13 38 43.368   +06 59 53.42  .00772 1.0111 162.7 20.7 1344 126
2026 04 17 06  13 39 03.628   +06 55 27.63  .00753 1.0110 162.7 20.6 1582 127
2026 04 17 07  13 39 24.945   +06 50 47.69  .00733 1.0108 162.8 20.6 1860 127
2026 04 17 08  13 39 47.405   +06 45 52.46  .00714 1.0106 162.8 20.5 2185 127
2026 04 17 09  13 40 11.102   +06 40 40.68  .00695 1.0104 162.9 20.4 2566 128
2026 04 17 10  13 40 36.141   +06 35 10.91  .00676 1.0103 163.0 20.4 3015 128
2026 04 17 11  13 41 02.639   +06 29 21.57  981980 1.0101 163.1 20.3 3544 128
2026 04 17 12  13 41 30.728   +06 23 10.90  953163 1.0099 163.2 20.2 4173 128
2026 04 17 13  13 42 00.556   +06 16 36.88  924349 1.0098 163.3 20.2 4925 129
2026 04 17 14  13 42 32.289   +06 09 37.27  895538 1.0096 163.4 20.1 5828 129
2026 04 17 15  13 43 06.116   +06 02 09.51  866731 1.0094 163.5 20.0 6924 129
2026 04 17 16  13 43 42.251   +05 54 10.68  837928 1.0093 163.6 19.9 8265 129
2026 04 17 17  13 44 20.939   +05 45 37.49  809130 1.0091 163.7 19.9 9925 129
2026 04 17 18  13 45 02.461   +05 36 26.10  780337 1.0089 163.8 19.8 200' 129
2026 04 17 19  13 45 47.139   +05 26 32.13  751550 1.0087 164.0 19.7 244' 130
2026 04 17 20  13 46 35.349   +05 15 50.50  722771 1.0086 164.1 19.6 302' 130
2026 04 17 21  13 47 27.524   +05 04 15.26  694000 1.0084 164.3 19.5 378' 130
2026 04 17 22  13 48 24.177   +04 51 39.46  665238 1.0082 164.5 19.4 483' 130
2026 04 17 23  13 49 25.908   +04 37 54.89  636488 1.0081 164.7 19.3 633' 130
2026 04 18 00  13 50 33.433   +04 22 51.80  607751 1.0079 164.9 19.2 859' 130
2026 04 18 01  13 51 47.606   +04 06 18.52  579029 1.0077 165.1 19.1  20d 130
2026 04 18 02  13 53 09.458   +03 48 00.96  550327 1.0076 165.3 19.0  31d 131
2026 04 18 03  13 54 40.248   +03 27 41.95  521647 1.0074 165.6 18.8  52d 131
2026 04 18 04  13 56 21.519   +03 05 00.40  492995 1.0072 165.8 18.7  88d 131
2026 04 18 05  13 58 15.194   +02 39 30.06  464376 1.0070 166.1 18.6 121d 131
2026 04 18 06  14 00 23.694   +02 10 37.94  435799 1.0069 166.4 18.4 139d 131
2026 04 18 07  14 02 50.112   +01 37 41.98  407273 1.0067 166.8 18.3 148d 131
2026 04 18 08  14 05 38.460   +00 59 47.80  378813 1.0065 167.1 18.1 153d 131
2026 04 18 09  14 08 54.033   +00 15 43.94  350437 1.0064 167.4 17.9 155d 131
2026 04 18 10  14 12 43.970   -00 36 05.15  322171 1.0062 167.6 17.7 157d 132
2026 04 18 11  14 17 18.108   -01 37 49.84  294050 1.0060 167.7 17.5 157d 132
2026 04 18 12  14 22 50.382   -02 52 31.80  266126 1.0059 167.6 17.3 157d 132
2026 04 18 13  14 29 41.150   -04 24 30.20  238475 1.0057 167.1 17.1 156d 132
2026 04 18 14  14 38 21.255   -06 20 03.46  211217 1.0055 166.0 16.9 154d 131
2026 04 18 15  14 49 39.470   -08 48 35.76  184538 1.0053 163.9 16.6 151d 131
2026 04 18 16  15 04 56.817   -12 04 15.72  158754 1.0052 160.4 16.4 146d 130
2026 04 18 17  15 26 35.375   -16 27 43.97  134416 1.0050 154.8 16.2 140d 129
2026 04 18 18  15 58 56.595   -22 24 44.03  112516 1.0048 146.1 16.1 131d 126
2026 04 18 19  16 49 59.997   -30 05 15.50   94841 1.0046 133.1 16.1 117d 121
2026 04 18 20  18 11 05.524   -38 03 27.85   84194 1.0044 115.3 16.4  99d 109
2026 04 18 21  20 00 19.684   -42 00 58.53   83392 1.0043  94.6 17.0  78d  92
2026 04 18 22  21 41 22.116   -39 43 53.58   92697 1.0041  75.9 18.1  60d  75
2026 04 18 23  22 49 41.231   -34 40 28.28  109509 1.0039  61.9 19.3  45d  65